Regional Weather Roundup
Issued by NWS

Home | Current Version | Previous Version | Text Only | Print | Product List | Glossary On
Versions: 1 2 3 4 5 6 7 8 9 10 11 12 13 14 15 16 17 18 19 20 21 22 23 24 25 26 27 28 29 30 31 32 33 34 35 36 37 38 39 40 41 42 43 44 45 46 47 48 49 50
000
ASUS43 KLSX 201607
RWRMO

WEATHER SUMMARY FOR MISSOURI
NATIONAL WEATHER SERVICE SPRINGFIELD MO
1000 AM CST MON FEB 20 2017

NOTE: "FAIR" INDICATES FEW OR NO CLOUDS BELOW 12,000 FEET WITH NO
       SIGNIFICANT WEATHER AND/OR OBSTRUCTIONS TO VISIBILITY.
       CURRENT SKY AND/OR WEATHER CONDITIONS ARE NOT AVAILABLE FOR
       CHILLICOTHE AND FARMINGTON.

MOZ001>031-035>038-043-044-053-054-201700-
...NORTHERN AND WESTERN MISSOURI...

CITY           SKY/WX    TMP DP  RH WIND       PRES   REMARKS
KANSAS CTY INT CLOUDY    60  59  96 S13       29.81F
KANSAS C DTWN  LGT RAIN  62  58  86 SE9G21    29.81F
LEE`S SUMMIT   CLOUDY    60  58  92 S16       29.82F
ST JOSEPH      CLOUDY    60  58  92 S13       29.80F
CHILLICOTHE      N/A     60  58  92 SE9       29.85F
KIRKSVILLE     CLOUDY    63  54  72 S12       29.90F

$$
MOZ066>068-077>081-088>096-101>105-201700-
...SOUTHWEST MISSOURI...

CITY           SKY/WX    TMP DP  RH WIND       PRES   REMARKS
SPRINGFIELD    CLOUDY    62  57  83 S18G24    29.94R
JOPLIN         LGT RAIN  62  61  96 S14       29.90R
BRANSON        CLOUDY    66  59  77 S12       29.98R

$$
MOZ032>034-039>042-045>050-055>058-069>072-201700-
...CENTRAL MISSOURI...

CITY           SKY/WX    TMP DP  RH WIND       PRES   REMARKS
COLUMBIA       PTSUNNY   71  52  50 S25G35    29.93S
JEFFERSON CITY MOSUNNY   70  52  52 S23G31    29.94S
ROLLA          CLOUDY    68  52  56 S22       29.98R
SEDALIA        CLOUDY    68  54  60 S17       29.89F
WHITEMAN AFB   MOSUNNY   63  61  94 S15G24    29.86S
WARRENSBURG    CLOUDY    61  55  82 SE9       29.85F
OSAGE BEACH    PTSUNNY   67  52  58 S15G21    29.95R

$$
MOZ051-052-059>065-201700-
...EAST CENTRAL MISSOURI...

CITY           SKY/WX    TMP DP  RH WIND       PRES   REMARKS
ST LOUIS INTL  PTSUNNY   66  51  58 SE14      30.03F
SPIRIT OF STL  MOSUNNY   66  53  63 VRB5      30.00F
ST CHARLES     MOSUNNY   65  53  65 SE10      30.02F

$$
MOZ072>076-082>087-097>100-106>115-201700-
...SOUTH CENTRAL AND SOUTHEAST MISSOURI...

CITY           SKY/WX    TMP DP  RH WIND       PRES   REMARKS
CAPE GIRARDEAU MOSUNNY   62  52  69 SE13      30.11R
POPLAR BLUFF   PTSUNNY   60  54  80 SE7       30.09R
WEST PLAINS    MOSUNNY   65  53  65 S15G22    30.05R

$$


USA.gov is the U.S. government's official web portal to all federal, state and local government web resources and services.